Terminal Aerodrome Forecast
Issued by NWS

Home | Current Version | Previous Version | Text Only | Print | Product List | Glossary On
Versions: 1 2 3 4 5 6 7 8 9 10 11 12 13 14 15 16 17 18 19
000
FTUS43 KGRR 300800 AAB
TAFMKG
TAF AMD
KMKG 300822Z 3008/3106 34016G21KT P6SM -SN OVC035
      TEMPO 3008/3010 3SM -SHSN OVC030
     FM301000 34010G18KT P6SM -SN BKN040
     FM301800 31007KT P6SM BKN040=

USA.gov is the U.S. government's official web portal to all federal, state and local government web resources and services.